Location: Caltech
(34.1382°N, 118.1253°W)
Time: 14:46:53
(UTC-07:00)

Cosmos 2237 Rocket - Visible Passes

Search period start: 02 September 2015 00:00
Search period end: 12 September 2015 00:00
Orbit: 836 x 849 km, 71.0° (Epoch: 01 September)

Date Brightness Start Highest point End Pass type
(mag) Time Alt. Az. Time Alt. Az. Time Alt. Az.
02 Sep 3.9 03:04:42 28° NNE 03:04:42 28° NNE 03:07:15 10° NNE visible
02 Sep 4.3 04:46:33 10° NW 04:46:40 10° NW 04:47:28 10° NW visible
03 Sep 4.2 02:50:27 23° NNE 02:50:27 23° NNE 02:52:27 10° NNE visible
03 Sep 4.4 04:32:18 11° NW 04:32:18 11° NW 04:33:10 10° NW visible
04 Sep 4.5 02:36:10 19° NNE 02:36:10 19° NNE 02:37:39 10° NNE visible
04 Sep 4.4 04:18:01 11° NW 04:18:01 11° NW 04:18:43 10° NNW visible
05 Sep 4.7 02:21:52 15° NNE 02:21:52 15° NNE 02:22:50 10° NNE visible
05 Sep 4.5 04:03:42 11° NW 04:03:42 11° NW 04:04:12 10° NNW visible
06 Sep 5.0 02:07:32 13° NNE 02:07:32 13° NNE 02:08:01 10° NNE visible
06 Sep 4.6 03:49:22 11° NNW 03:49:22 11° NNW 03:49:37 10° NNW visible
07 Sep 5.1 01:53:10 10° NNE 01:53:10 10° NNE 01:53:13 10° NNE visible
07 Sep 4.7 03:35:00 10° NNW 03:35:00 10° NNW 03:35:01 10° NNW visible
